Location: London
(51.5074°N, 0.1278°W)
Time: 07:11:40
(UTC+00:00)

TIGRISAT - Pass Details

Date: 03 October 2020
Orbit: 606 x 688 km, 97.7° (Epoch: 30 October)

Event Time Altitude Azimuth Distance (km) Brightness Sun altitude
Rises 22:20:29 0° 5° (N) 2,981 ? -33.7°
Reaches altitude 10° 22:22:57 10° 353° (N) 2,080 ? -33.9°
Enters shadow 22:26:20 26° 306° (NW) 1,304 ? -34.3°
